Regional Weather Roundup
Issued by NWS Sterling, VA

Home | Current Version | Previous Version | Graphics & Text | Print | Product List | Glossary On
Versions: 1 2 3 4 5 6 7 8 9 10 11 12 13 14 15 16 17 18 19 20 21 22 23 24 25 26 27
000
ASUS41 KLWX 270610
RWRLWX

REGIONAL WEATHER ROUNDUP
NATIONAL WEATHER SERVICE BALTIMORE MD/WASHINGTON DC
200 AM EDT WED JUL 27 2016

Note: "FAIR" indicates few or no clouds below 12,000 feet
with no significant weather and/or obstructions to visibility.
 TC=TEMPERATURE CELSIUS

 * =Non NWS site. Station does not report precipitation (e.g. rain,
    snow, etc.), thunder, or fog.

DCZ001-MDZ009-015-VAZ040>042-051-053>054-270700-
WASHINGTON METRO

CITY           SKY/WX    TMP DP  RH WIND       PRES   REMARKS
WASHINGTON NAT MOCLDY    83  73  72 W7        29.94F
DULLES         MOCLDY    79  71  76 SW5       29.96F
ANDREWS AFB    CLOUDY    81  73  76 W9        29.93F
FT BELVOIR     FAIR      79  72  77 W7        29.94F
QUANTICO       FAIR      78  71  79 NW7       29.94F
COLLEGE PARK*  FAIR      81  72  74 W6        29.92F
LEESBURG*      FAIR      81  77  89 W6        29.97F
MANASSAS*      MOCLDY    79  73  83 CALM      29.96S
GAITHERSBURG*  MOCLDY    79  70  73 W5        30.00S

$$

MDZ006>007-011-014-270700-
BALTIMORE METRO

CITY           SKY/WX    TMP DP  RH WIND       PRES   REMARKS
BWI AIRPORT    CLOUDY    79  71  76 W6        29.92F
MD SCIENCE CTR   N/A     85  68  56 MISG      29.92F
MARTIN STATE   CLOUDY    81  77  89 CALM      29.92F
ANNAPOLIS      MOCLDY    84  74  71 NW3       29.91F HX  91
FORT MEADE*    CLOUDY    73  72  94 CALM      29.95F

$$

MDZ012-015-019>023-270700-
MARYLAND EASTERN SHORE

CITY           SKY/WX    TMP DP  RH WIND       PRES   REMARKS
OCEAN CITY     PTCLDY    76  74  93 CALM      29.92F
SALISBURY      PTCLDY    76  74  93 CALM      29.91F
BAY BRIDGE AP* MOCLDY    84  75  74 CALM      29.91F HX  92
EASTON*        CLOUDY    84  82  93 CALM      29.95F HX 100

$$

MDZ017>025-270700-
SOUTHERN MARYLAND

CITY           SKY/WX    TMP DP  RH WIND       PRES   REMARKS
PATUXENT RIVER PTCLDY    81  76  84 W6        29.91F
ST INIGOES     MOCLDY    82  77  84 W5        29.91F HX  90
LEONARDTOWN*     N/A    N/A N/A N/A MISG        N/A

$$

MDZ003>005-270700-
NORTH CENTRAL MARYLAND

CITY           SKY/WX    TMP DP  RH WIND       PRES   REMARKS
FREDERICK*     MOCLDY    77  73  88 S3        29.97S
HAGERSTOWN APT CLOUDY    81  62  52 CALM      29.97F

$$

MDZ501>502-270700-
WESTERN MARYLAND

CITY           SKY/WX    TMP DP  RH WIND       PRES   REMARKS
OAKLAND*       CLOUDY    68  66  94 W3        30.12F
CUMBERLAND*    CLOUDY    77  68  73 CALM      30.04S

$$

VAZ025>031-270700-
SHENANDOAH VALLEY

CITY           SKY/WX    TMP DP  RH WIND       PRES   REMARKS
WINCHESTER*    FAIR      77  70  78 S5        29.98S
FRONT ROYAL*   MOCLDY    75  72  88 S3        29.98F
LURAY*         MOCLDY    73  73 100 CALM      30.01S
NEW MARKET*    CLOUDY   N/A N/A N/A CALM      30.00S
STAUNTON*      FAIR      71  71  99 CALM      30.05S FOG
WAYNESBORO*    FAIR      73  71  94 SW3       30.04S

$$

WVZ021-048>050-054>055-270700-
EASTERN WEST VIRGINIA PANHANDLE

CITY           SKY/WX    TMP DP  RH WIND       PRES   REMARKS
MARTINSBURG    FAIR      77  70  79 CALM      29.96F
PETERSBURG*    FAIR      74  73  96 CALM      30.01S

$$

VAZ036>039-050-270700-
CENTRAL FOOTHILLS

CITY           SKY/WX    TMP DP  RH WIND       PRES   REMARKS
CHARLOTTESVILL MOCLDY    77  73  87 CALM      29.97F
CULPEPER*      CLOUDY    75  74  96 CALM      29.97F
ORANGE*          N/A     77  75  94 CALM      29.98F
GORDONSVILLE*  MOCLDY    76  73  88 SW3       29.97S
WARRENTON*     MOCLDY    75  70  83 CALM      29.96F

$$

VAZ055>057-270700-
NORTH AND CENTRAL PIEDMONT

CITY           SKY/WX    TMP DP  RH WIND       PRES   REMARKS
FREDERICKSBRG* FAIR      76  74  91 W5        29.94S
STAFFORD*      FAIR      74  71  88 W5        29.99S

$$

NCZ024-NYZ072-PAZ021-071-VAZ022-071-270700-
OTHER REGIONAL OBSERVATIONS

CITY           SKY/WX    TMP DP  RH WIND       PRES   REMARKS
NEW YORK CITY  PTCLDY    80  60  50 VRB5      29.96R
PHILADELPHIA   CLOUDY    81  74  79 E3        29.93S
PITTSBURGH     CLOUDY    72  60  66 CALM      30.03S
ROANOKE        FAIR      76  73  91 NE5       30.04F
RICHMOND       CLOUDY    74  72  93 VRB3      29.95S
RALEIGH        CLOUDY    79  75  87 VRB5      29.99R

$$

ANZ530>537-270700-
MARINE OBSERVATIONS

STATION/POSITION TIME  TEMP    WIND        PRES
                       AIR SEA DIR/SP/G
                 (UTC) (F)     (DEG/KT/KT) (MB)
THOMAS PT LIGHT  0600   84 84  280/  8/  9 1014.2F
BALT KEY BRIDGE  0542   83     240/  5/  6 1013.1F
COVE POINT       0542   82     280/  9/ 12 1013.4F
LEWISETTA        0542   81 88  300/  4/  5 1012.5F
SOLOMONS ISLAND  0542   82 86  280/  4/  4   N/A
PINEY POINT      0548          330/  9/ 10   N/A

$$





USA.gov is the U.S. government's official web portal to all federal, state and local government web resources and services.